Location: Alt?nova Orta
(36.9295°N, 30.7847°E)
Time: 10:57:59
(UTC+00:00)

STARLINK-1067 - Pass Details

Date: 17 February 2020
Orbit: 549 x 550 km, 53.0° (Epoch: 05 April)

Event Time Altitude Azimuth Distance (km) Brightness Sun altitude
Exits shadow 03:12:12 40° 305° (NW) 850 4.1 -19.0°
Maximum altitude 03:13:40 80° 226° (SW) 588 3.6 -18.7°
Drops below altitude 10° 03:17:57 10° 138° (SE) 1,875 6.9 -17.8°
Sets 03:20:12 0° 137° (SE) 2,769 7.9 -17.4°
